Nashua, NH

11:18 AM EDT on October 14, 2019 (GMT -0400)
Boire

Weather History for KASH - May, 2019

Change the Weather History Date:

Thursday, May 9, 2019

  Actual Average Record
Temperature  
Mean Temperature 50 °F -  
Max Temperature 66 °F 64 °F 92 °F (1979)
Min Temperature 37 °F 40 °F 22 °F (1956)
Degree Days  
Heating Degree Days 14    
Moisture  
Dew Point 31 °F    
Average Humidity 48    
Maximum Humidity 89    
Minimum Humidity 26    
Precipitation  
Precipitation 0.00 in - - ()
Sea Level Pressure  
Sea Level Pressure 30.37 in    
Wind  
Wind Speed 6 mph (SE)    
Max Wind Speed 14 mph    
Max Gust Speed 17 mph    
Visibility 10 miles    
Events      
Averages and records for this station are not official NWS values.
T = Trace of Precipitation, MM = Missing Value Source: NWS Daily Summary

Daily Weather History Graph

Daily Weather History Graph

Search for Another Location

Airport or City:

Astronomy

May. 09, 2019 Rise Set
Actual Time 5:30 AM EDT 7:55 PM EDT
Civil Twilight 4:58 AM EDT 8:27 PM EDT
Nautical Twilight 4:19 AM EDT 9:06 PM EDT
Astronomical Twilight 3:35 AM EDT 9:51 PM EDT
Moon 9:20 AM EDT (5/9) No Moon Set
Length of Visible Light 15h 28m
Length of Day
14h 24m
Waxing Crescent, 24% of the Moon is Illuminated
May 9
Waxing Crescent
May 11
First Quarter
May 18
Full
May 26
Last Quarter
Jun 3
New

Hourly Weather History & Observations

Time (EDT) Temp. Windchill Dew Point Humidity Pressure Visibility Wind Dir Wind Speed Gust Speed Precip Events Conditions
12:56 AM 45.0 °F 43.5 °F 28.9 °F 53% 30.38 in 10.0 mi NW 3.5 mph - N/A   Clear
1:56 AM 42.1 °F 39.2 °F 30.9 °F 65% 30.39 in 10.0 mi WNW 4.6 mph - N/A   Clear
2:56 AM 41.0 °F 35.8 °F 32.0 °F 70% 30.40 in 10.0 mi NW 8.1 mph - N/A   Clear
3:56 AM 39.0 °F 36.8 °F 33.1 °F 79% 30.41 in 10.0 mi WNW 3.5 mph - N/A   Clear
4:56 AM 37.0 °F 34.5 °F 32.0 °F 82% 30.43 in 10.0 mi WNW 3.5 mph - N/A   Clear
5:56 AM 37.9 °F 34.4 °F 35.1 °F 89% 30.43 in 10.0 mi NW 4.6 mph - N/A   Clear
6:56 AM 43.0 °F 41.3 °F 33.1 °F 68% 30.44 in 10.0 mi WNW 3.5 mph - N/A   Clear
7:56 AM 50.0 °F - 30.9 °F 48% 30.44 in 10.0 mi Calm Calm - N/A   Clear
8:09 AM 51.8 °F - 24.8 °F 35% 30.40 in 10.0 mi East 5.8 mph - N/A   Clear
8:56 AM 53.1 °F - 25.0 °F 34% 30.43 in 10.0 mi Variable 5.8 mph - N/A   Clear
9:56 AM 54.0 °F - 24.1 °F 31% 30.42 in 10.0 mi Variable 3.5 mph - N/A   Clear
10:56 AM 55.9 °F - 26.1 °F 32% 30.41 in 10.0 mi Variable 4.6 mph - N/A   Partly Cloudy
11:56 AM 57.9 °F - 26.1 °F 30% 30.38 in 10.0 mi SE 6.9 mph - N/A   Clear
12:56 PM 61.0 °F - 26.1 °F 26% 30.36 in 10.0 mi East 8.1 mph - N/A   Clear
1:56 PM 63.0 °F - 28.0 °F 27% 30.34 in 10.0 mi ESE 8.1 mph - N/A   Clear
2:56 PM 64.9 °F - 30.0 °F 27% 30.32 in 10.0 mi Calm Calm - N/A   Clear
3:56 PM 64.0 °F - 36.0 °F 35% 30.31 in 10.0 mi ESE 13.8 mph - N/A   Scattered Clouds
4:56 PM 64.0 °F - 35.1 °F 34% 30.32 in 10.0 mi SE 10.4 mph 17.3 mph N/A   Clear
5:56 PM 59.0 °F - 35.1 °F 41% 30.32 in 10.0 mi SSE 9.2 mph - N/A   Overcast
6:56 PM 55.0 °F - 34.0 °F 45% 30.34 in 10.0 mi SE 11.5 mph - N/A   Overcast
7:56 PM 54.0 °F - 32.0 °F 43% 30.34 in 10.0 mi ESE 11.5 mph - N/A   Overcast
8:56 PM 53.1 °F - 30.9 °F 43% 30.35 in 10.0 mi SE 12.7 mph - N/A   Overcast
9:56 PM 52.0 °F - 36.0 °F 54% 30.34 in 10.0 mi SE 11.5 mph - N/A   Overcast
10:56 PM 52.0 °F - 36.0 °F 54% 30.33 in 10.0 mi SE 6.9 mph - N/A   Overcast
11:56 PM 52.0 °F - 37.0 °F 57% 30.31 in 10.0 mi SE 5.8 mph - N/A   Overcast